[[{"header":{"parameterUnit":"m.s-1","parameterCategory":2,"la1":30.2991,"la2":30.254,"lo1":-89.0895,"lo2":-89.0444,"dy":0.0017,"dx":0.0017,"nx":28,"ny":28,"refTime":"2024-03-19T21:00:00:Z","depth":"0","parameterNumber":2,"parameterNumberName":"U-component_of_CURRENTS"},"data":[0,0,0,0,0,0,0,0,0,0,0,0,0,0,0,0,0,0,0,0,0,0,0,0,0,0,0,0,0,0,0,0,0,0,0,0,0,0,0,0,0,0,0,0,0,0,0,0,0,0,0,0,0,0,0,0,0,0,0.3223,0.3224,0,0.3232,0.3232,0.3232,0.3239,0.3239,0.324,0.324,0.3192,0.319,0.3188,0,0,0,0,0,0,0,0,0,0,0,0,0,0.3159,0.316,0.3223,0.3224,0.3224,0.3232,0.3232,0.3231,0.3239,0.3239,0.324,0.3241,0.3193,0.3191,0.3188,0,0,0,0,0,0,0,0,0,0,0,0,0,0.3174,0.316,0.3223,0.3233,0.3234,0.3232,0.3232,0.3231,0.3238,0.3239,0.324,0.3241,0.3193,0.3191,0.3188,0.3154,0,0,0.318,0.3179,0,0,0,0,0,0,0,0,0.3173,0.3176,0.3231,0.3232,0.3234,0.324,0.3192,0.3205,0.3238,0.3231,0.324,0.3241,0.3206,0.3202,0.3195,0.3152,0.315,0.3179,0.3178,0.3177,0.3176,0,0,0,0,0,0,0,0.3172,0.3175,0.3221,0.3232,0.3233,0.3219,0.3222,0.3194,0.3208,0.3232,0.3234,0.3243,0.3205,0.3198,0.3194,0.3149,0.318,0.3177,0.3175,0.3174,0.3113,0.3113,0,0,0,0,0,0,0.3184,0.3174,0.3221,0.3222,0.3211,0.322,0.3223,0.3233,0.321,0.3209,0.3242,0.3243,0.3202,0.3197,0.3192,0.3202,0.3177,0.3174,0.3173,0.3113,0.3113,0.3113,0,0,0,0,0,0,0.3182,0.3188,0.3221,0.3202,0.3207,0.3221,0.3231,0.3233,0.3228,0.322,0.3217,0.3238,0.3202,0.3196,0.3176,0.3198,0.3173,0.317,0.3113,0.3113,0.3113,0.3188,0,0,0,0,0,0,0.318,0.3187,0.3182,0.3203,0.3208,0.3224,0.3231,0.3232,0.3235,0.3237,0.3215,0.3211,0.3202,0.3181,0.3174,0.3194,0.3168,0.3113,0.3113,0.3113,0.3186,0.3191,0.3195,0,0,0,0,0,0.3178,0.3162,0.3182,0.3187,0.3206,0.3225,0.3225,0.3234,0.3234,0.3232,0.3222,0.3212,0.3176,0.3178,0.317,0.319,0.3113,0.3113,0.3113,0.3184,0.319,0.3195,0,0,0,0,0,0,0.3111,0.3163,0.3185,0.3181,0.3209,0.3228,0.3216,0.3231,0.3219,0.3214,0.3205,0.3201,0.319,0.3171,0.3173,0.317,0.3145,0.3143,0.3201,0.3207,0.3211,0.3179,0.3166,0,0,0,0,0,0.3103,0.3117,0.3162,0.316,0.3172,0.3195,0.3198,0.3214,0.3217,0.3212,0.3207,0.3193,0.3181,0.318,0.3157,0.3152,0.3136,0.3159,0.3164,0.3168,0.3134,0.3138,0.3141,0.3113,0.3113,0.3113,0,0,0.308,0.3107,0.3116,0.3149,0.3164,0.3189,0.3197,0.3205,0.3228,0.3206,0.3212,0.3198,0.3178,0.318,0.3175,0.3171,0.3177,0.3168,0.3172,0.3135,0.3139,0.3142,0.3144,0.3113,0.3113,0.3113,0,0,0.3051,0.3064,0.3077,0.3106,0.3143,0.3164,0.3171,0.3201,0.3211,0.322,0.3215,0.321,0.3195,0.3196,0.3192,0.32,0.3192,0.3202,0.3213,0.322,0.3222,0.3224,0.3253,0.3256,0.3218,0.3218,0.3218,0,0.302,0.3047,0.3078,0.3103,0.3125,0.3158,0.318,0.3197,0.322,0.3221,0.3228,0.3204,0.3202,0.32,0.3215,0.3212,0.3216,0.3203,0.3228,0.3229,0.3229,0.3258,0.3261,0.3221,0.3221,0.3221,0.322,0,0.3023,0.3041,0.3042,0.3101,0.3125,0.314,0.3192,0.3208,0.3226,0.3241,0.3234,0.323,0.3214,0.3232,0.3228,0.3234,0.3239,0.323,0.322,0.3237,0.3266,0.3268,0.3227,0.3225,0.3224,0.3223,0,0,0.2966,0.3034,0.3036,0.3064,0.3125,0.3145,0.3184,0.3219,0.3231,0.3247,0.3248,0.325,0.3235,0.3225,0.323,0.3242,0.3285,0.3241,0.324,0.328,0.3317,0.3324,0.3327,0.3288,0.3287,0.3287,0.3353,0,0.2959,0.3001,0.3041,0.3079,0.3105,0.3154,0.3193,0.3229,0.3245,0.3254,0.3247,0.3242,0.3241,0.324,0.325,0.326,0.3284,0.3268,0.3281,0.3281,0.3294,0.3326,0.3095,0.3132,0.3354,0.3354,0.3355,0,0.295,0.2985,0.3018,0.3083,0.3098,0.3125,0.3175,0.3212,0.3236,0.3251,0.3236,0.3226,0.3232,0.3231,0.3256,0.3248,0.3276,0.3292,0.3296,0.3261,0.3289,0.3138,0.3126,0.2882,0.3357,0.3357,0.3357,0,0.29,0.2961,0.2983,0.3008,0.309,0.3106,0.3145,0.3192,0.3211,0.3229,0.3233,0.323,0.3226,0.3247,0.3276,0.3273,0.3305,0.3314,0.3347,0.335,0.3127,0.3111,0.2875,0.3326,0.3325,0.3325,0.3325,0,0.287,0.289,0.2957,0.2972,0.3,0.3072,0.3088,0.3136,0.3172,0.3176,0.3209,0.3207,0.3225,0.3243,0.3277,0.3316,0.3313,0.3338,0.3358,0.3154,0.3139,0.2896,0.2862,0.3328,0.3327,0.3327,0.3326,0,0.2813,0.2853,0.2886,0.2959,0.2972,0.2992,0.305,0.3068,0.3123,0.3127,0.3132,0.3181,0.3217,0.3248,0.3291,0.3319,0.323,0.3377,0.3151,0.3143,0.2962,0.2945,0.2774,0.2718,0.343,0.343,0.3431,0,0.2788,0.2796,0.2857,0.2868,0.2892,0.2926,0.2953,0.3024,0.304,0.3107,0.3103,0.3145,0.3166,0.3251,0.3281,0.3346,0.3201,0.319,0.314,0.2905,0.29,0.2833,0.2794,0.2891,0.2887,0.2884,0.2881,0,0.2751,0.2768,0.2803,0.2824,0.2838,0.2865,0.2899,0.2908,0.2986,0.2997,0.3031,0.3056,0.3126,0.3076,0.3168,0.3176,0.2955,0.3131,0.29,0.2468,0.2358,0.2328,0.2927,0.2851,0.2854,0.2856,0.2858,0.2859,0.273,0.2734,0.2773,0.2778,0.2804,0.2819,0.2799,0.2837,0.2852,0.2821,0.2912,0.2875,0.2814,0.2914,0.2907,0.2654,0.2827,0.2499,0.2509,0.247,0.2351,0.2923,0.2871,0.2874,0.2876,0.2879,0.2881,0,0.2693,0.2708,0.2725,0.274,0.2732,0.2762,0.2772,0.2715,0.2684,0.2671,0.2654,0.2512,0.2396,0.2315,0.2128,0.1992,0.1925,0.1862,0.1606,0.162,0.2078,0.1979,0.171,0.1711,0.1711,0.1711,0.1711,0.1712,0.2689,0.2676,0.2669,0.2648,0.2655,0.2586,0.2563,0.2489,0.2452,0.2258,0.2131,0.2107,0.1916,0.1575,0.1261,0.1244,0.1105,0.1056,0.116,0.1317,0.1372,0.1424,0.1309,0.0905,0.0905,0.0524,0.0521,0.0518]},{"header":{"parameterUnit":"m.s-1","parameterCategory":2,"la1":30.2991,"la2":30.254,"lo1":-89.0895,"lo2":-89.0444,"dy":0.0017,"dx":0.0017,"nx":28,"ny":28,"refTime":"2024-03-19T21:00:00:Z","depth":"0","parameterNumber":3,"parameterNumberName":"V-component_of_CURRENTS"},"data":[0,0,0,0,0,0,0,0,0,0,0,0,0,0,0,0,0,0,0,0,0,0,0,0,0,0,0,0,0,0,0,0,0,0,0,0,0,0,0,0,0,0,0,0,0,0,0,0,0,0,0,0,0,0,0,0,0,0,-0.1151,-0.1152,0,-0.123,-0.1231,-0.1232,-0.1237,-0.1237,-0.1236,-0.1235,-0.1204,-0.1204,-0.1204,0,0,0,0,0,0,0,0,0,0,0,0,0,-0.094,-0.0945,-0.1151,-0.1152,-0.1153,-0.123,-0.1231,-0.1232,-0.1237,-0.1237,-0.1236,-0.1235,-0.1205,-0.1204,-0.1204,0,0,0,0,0,0,0,0,0,0,0,0,0,-0.1026,-0.0946,-0.1151,-0.1166,-0.1169,-0.123,-0.1231,-0.1232,-0.1238,-0.1237,-0.1235,-0.1234,-0.1205,-0.1204,-0.1204,-0.1226,0,0,-0.1204,-0.1204,0,0,0,0,0,0,0,0,-0.1021,-0.1033,-0.1163,-0.1165,-0.1168,-0.1224,-0.1146,-0.1225,-0.1238,-0.121,-0.1235,-0.1234,-0.1203,-0.1203,-0.1219,-0.1224,-0.1223,-0.1204,-0.1204,-0.1203,-0.1203,0,0,0,0,0,0,0,-0.1015,-0.103,-0.1181,-0.1164,-0.1167,-0.1148,-0.1159,-0.1161,-0.1208,-0.1212,-0.1213,-0.1225,-0.1203,-0.122,-0.1218,-0.1222,-0.1204,-0.1204,-0.1203,-0.1203,-0.1258,-0.126,0,0,0,0,0,0,-0.1014,-0.1025,-0.1178,-0.1183,-0.1092,-0.1153,-0.1165,-0.1206,-0.1211,-0.1212,-0.1226,-0.1225,-0.1221,-0.1219,-0.1217,-0.1261,-0.1203,-0.1203,-0.1203,-0.1257,-0.1259,-0.126,0,0,0,0,0,0,-0.101,-0.1028,-0.1175,-0.1104,-0.1122,-0.1158,-0.1203,-0.1208,-0.1226,-0.1223,-0.1221,-0.1238,-0.122,-0.1217,-0.1243,-0.1258,-0.1203,-0.1203,-0.1255,-0.1257,-0.126,-0.1335,0,0,0,0,0,0,-0.1004,-0.1027,-0.1051,-0.1106,-0.1126,-0.1218,-0.1205,-0.1211,-0.1235,-0.1235,-0.1233,-0.1229,-0.1219,-0.1243,-0.1243,-0.1257,-0.1203,-0.1253,-0.1256,-0.1259,-0.1331,-0.134,-0.1348,0,0,0,0,0,-0.0997,-0.1031,-0.1052,-0.107,-0.1161,-0.1219,-0.1228,-0.1246,-0.1237,-0.1255,-0.1264,-0.1229,-0.126,-0.1246,-0.1244,-0.1258,-0.1252,-0.1255,-0.1259,-0.1327,-0.1338,-0.1348,0,0,0,0,0,0,-0.0935,-0.1037,-0.1061,-0.1121,-0.1171,-0.1221,-0.1234,-0.1251,-0.1275,-0.1268,-0.1259,-0.1257,-0.1281,-0.1266,-0.1249,-0.1284,-0.1246,-0.125,-0.1299,-0.1309,-0.1317,-0.129,-0.1203,0,0,0,0,0,-0.094,-0.1,-0.108,-0.1122,-0.115,-0.1194,-0.1216,-0.1237,-0.1268,-0.1277,-0.1283,-0.1285,-0.1296,-0.13,-0.1304,-0.133,-0.1291,-0.1335,-0.1344,-0.1351,-0.1329,-0.1317,-0.1322,-0.1272,-0.1272,-0.1272,0,0,-0.0917,-0.0987,-0.1013,-0.1113,-0.1148,-0.1201,-0.1204,-0.1246,-0.1286,-0.1268,-0.1312,-0.1314,-0.131,-0.1342,-0.135,-0.1331,-0.1347,-0.1356,-0.1362,-0.1335,-0.1321,-0.1326,-0.133,-0.1274,-0.1274,-0.1274,0,0,-0.0911,-0.0975,-0.1026,-0.1082,-0.1157,-0.1196,-0.1211,-0.1276,-0.13,-0.1352,-0.1348,-0.1364,-0.1386,-0.1392,-0.1394,-0.145,-0.1392,-0.1451,-0.1472,-0.1463,-0.1466,-0.1469,-0.1429,-0.1427,-0.1457,-0.1457,-0.1457,0,-0.0875,-0.0971,-0.1039,-0.1105,-0.1148,-0.1196,-0.1247,-0.1289,-0.1353,-0.1366,-0.1369,-0.1399,-0.1405,-0.1429,-0.1459,-0.1466,-0.144,-0.1436,-0.1472,-0.1474,-0.1475,-0.1433,-0.143,-0.1461,-0.146,-0.146,-0.146,0,-0.0916,-0.0991,-0.102,-0.1133,-0.1183,-0.1233,-0.1309,-0.1349,-0.1379,-0.1409,-0.144,-0.1461,-0.1465,-0.1486,-0.1494,-0.1511,-0.1483,-0.1484,-0.1442,-0.1484,-0.1438,-0.1434,-0.1467,-0.1465,-0.1464,-0.1463,0,0,-0.0842,-0.1016,-0.1025,-0.1083,-0.1207,-0.1245,-0.1319,-0.1388,-0.1401,-0.146,-0.1469,-0.1522,-0.151,-0.1511,-0.1522,-0.1528,-0.1534,-0.1516,-0.1514,-0.1467,-0.1488,-0.1368,-0.1351,-0.1546,-0.1546,-0.1546,-0.1454,0,-0.0851,-0.0975,-0.1061,-0.115,-0.122,-0.1293,-0.1343,-0.1403,-0.1445,-0.1465,-0.1488,-0.1493,-0.1528,-0.1518,-0.154,-0.152,-0.1524,-0.1556,-0.146,-0.1456,-0.1338,-0.1343,-0.1174,-0.1069,-0.1449,-0.1448,-0.1447,0,-0.0871,-0.0961,-0.1056,-0.1177,-0.1204,-0.1246,-0.1316,-0.1367,-0.1413,-0.1434,-0.1455,-0.1464,-0.1478,-0.1499,-0.1489,-0.1507,-0.1504,-0.1496,-0.1493,-0.1341,-0.1327,-0.1088,-0.1045,-0.105,-0.1439,-0.144,-0.1441,0,-0.0806,-0.0953,-0.1024,-0.1071,-0.1205,-0.123,-0.1277,-0.134,-0.1345,-0.1392,-0.1373,-0.1416,-0.138,-0.1414,-0.1407,-0.145,-0.1368,-0.1423,-0.131,-0.1301,-0.1112,-0.1086,-0.1046,-0.1416,-0.1416,-0.1416,-0.1417,0,-0.0806,-0.0864,-0.099,-0.1031,-0.1065,-0.1171,-0.118,-0.1234,-0.1256,-0.1214,-0.1325,-0.1274,-0.1355,-0.1327,-0.1369,-0.1288,-0.1334,-0.1287,-0.1265,-0.1135,-0.1113,-0.1071,-0.1118,-0.1413,-0.1414,-0.1414,-0.1415,0,-0.0743,-0.0837,-0.091,-0.1022,-0.1043,-0.1055,-0.11,-0.1095,-0.1136,-0.1081,-0.1078,-0.1124,-0.108,-0.1141,-0.1144,-0.1175,-0.1103,-0.1124,-0.0946,-0.0904,-0.082,-0.0877,-0.0759,-0.075,-0.0992,-0.0988,-0.0985,0,-0.0731,-0.0765,-0.0856,-0.0862,-0.0908,-0.0939,-0.0946,-0.1016,-0.0991,-0.0958,-0.0901,-0.0868,-0.0795,-0.0765,-0.0803,-0.0814,-0.0908,-0.0706,-0.077,-0.076,-0.081,-0.0853,-0.0861,-0.0556,-0.055,-0.0545,-0.0541,0,-0.068,-0.0696,-0.0738,-0.0745,-0.0757,-0.078,-0.0788,-0.0758,-0.0784,-0.0696,-0.0567,-0.0501,-0.0463,-0.0364,-0.0408,-0.0448,-0.0642,-0.0599,-0.0637,-0.0489,-0.0481,-0.0477,-0.0672,-0.0495,-0.0499,-0.0503,-0.0505,-0.0507,-0.0593,-0.0594,-0.0613,-0.061,-0.0619,-0.0611,-0.0596,-0.0557,-0.0455,-0.0308,-0.0269,-0.0086,-0.0025,-0.0037,-0.0108,-0.014,-0.0283,-0.0171,-0.0247,-0.0296,-0.0265,-0.0339,-0.0115,-0.0117,-0.0119,-0.0121,-0.0123,0,-0.0476,-0.0486,-0.0478,-0.0477,-0.0438,-0.049,-0.0471,-0.0415,-0.025,-0.0065,0.0113,0.036,0.0439,0.0359,0.0316,0.0232,0.0131,0.0145,0.0101,0.0064,-0.001,0.0031,0.0358,0.0358,0.0358,0.0358,0.0358,0.0358,-0.0409,-0.0372,-0.0384,-0.0302,-0.0293,-0.0259,-0.0247,-0.0141,-0.0013,0.0303,0.0525,0.0638,0.066,0.0576,0.0478,0.0413,0.0273,0.0326,0.0155,0.008,0.0043,0.0007,0.0034,0.0357,0.0357,0.0316,0.0316,0.0315]}],[{"header":{"parameterUnit":"m.s-1","parameterCategory":2,"la1":30.2991,"la2":30.254,"lo1":-89.0895,"lo2":-89.0444,"dy":0.0017,"dx":0.0017,"nx":28,"ny":28,"refTime":"2024-03-19T21:00:00:Z","depth":"2","parameterNumber":2,"parameterNumberName":"U-component_of_CURRENTS"},"data":[0,0,0,0,0,0,0,0,0,0,0,0,0,0,0,0,0,0,0,0,0,0,0,0,0,0,0,0,0,0,0,0,0,0,0,0,0,0,0,0,0,0,0,0,0,0,0,0,0,0,0,0,0,0,0,0,0,0,0.1654,0.1653,0,0.154,0.1538,0.1536,0.152,0.1522,0.1523,0.1525,0.1579,0.1579,0.1579,0,0,0,0,0,0,0,0,0,0,0,0,0,0.168,0.168,0.1654,0.1653,0.1652,0.154,0.1538,0.1536,0.152,0.1522,0.1524,0.1526,0.1579,0.1579,0.1579,0,0,0,0,0,0,0,0,0,0,0,0,0,0.1622,0.168,0.1654,0.1635,0.1633,0.1541,0.1538,0.1535,0.1519,0.1522,0.1524,0.1526,0.1579,0.1579,0.1579,0.1529,0,0,0.1579,0.1579,0,0,0,0,0,0,0,0,0.1625,0.162,0.1639,0.1637,0.1634,0.1552,0.1567,0.1544,0.1519,0.1556,0.1525,0.1528,0.1588,0.1588,0.1549,0.1531,0.1534,0.1579,0.1579,0.1579,0.1579,0,0,0,0,0,0,0,0.1629,0.1624,0.1602,0.1638,0.1635,0.1572,0.1568,0.1561,0.1558,0.1552,0.1553,0.155,0.1588,0.1549,0.1551,0.1535,0.1579,0.1579,0.1578,0.1578,0.1676,0.1679,0,0,0,0,0,0,0.1663,0.1628,0.1606,0.1599,0.1643,0.1571,0.1565,0.1571,0.1554,0.1554,0.1548,0.1549,0.1548,0.1551,0.1553,0.1662,0.1579,0.1578,0.1578,0.1674,0.1677,0.168,0,0,0,0,0,0,0.1664,0.1662,0.1611,0.1616,0.1606,0.157,0.1575,0.1567,0.1546,0.155,0.1552,0.1538,0.155,0.1553,0.1573,0.1659,0.1578,0.1578,0.1671,0.1675,0.1678,0.1773,0,0,0,0,0,0,0.1665,0.1663,0.1672,0.1619,0.1607,0.1581,0.1573,0.1564,0.1543,0.1544,0.1542,0.1548,0.1552,0.1573,0.1573,0.1657,0.1578,0.1667,0.1672,0.1677,0.1767,0.178,0.1791,0,0,0,0,0,0.1667,0.1675,0.1673,0.167,0.1623,0.1582,0.1569,0.1546,0.1541,0.1534,0.1538,0.1549,0.1608,0.1572,0.1572,0.1659,0.1665,0.1671,0.1677,0.1761,0.1777,0.1791,0,0,0,0,0,0,0.1684,0.1672,0.167,0.1673,0.1643,0.1583,0.1578,0.1547,0.1533,0.1557,0.1544,0.155,0.1609,0.1607,0.1569,0.1706,0.1653,0.1659,0.1718,0.1733,0.1745,0.175,0.1578,0,0,0,0,0,0.1694,0.1702,0.1673,0.1674,0.1672,0.1621,0.16,0.1589,0.157,0.1564,0.1571,0.1598,0.1625,0.1655,0.167,0.1717,0.1711,0.1787,0.1799,0.1809,0.1815,0.1845,0.186,0.17,0.17,0.1699,0,0,0.171,0.1694,0.1707,0.1678,0.1658,0.1655,0.1614,0.1607,0.1627,0.1577,0.1623,0.1625,0.164,0.1708,0.174,0.1725,0.1859,0.1817,0.1826,0.1826,0.1853,0.1868,0.1882,0.1704,0.1703,0.1702,0,0,0.1724,0.1731,0.174,0.1723,0.1706,0.1687,0.1691,0.1661,0.1682,0.1699,0.1697,0.1731,0.1766,0.18,0.1818,0.19,0.1907,0.1942,0.2025,0.2054,0.2067,0.2078,0.2113,0.2126,0.1967,0.1967,0.1967,0,0.1768,0.1736,0.1732,0.1727,0.1728,0.171,0.1719,0.173,0.1717,0.1742,0.1747,0.1792,0.1812,0.188,0.1939,0.193,0.195,0.1965,0.2069,0.208,0.2089,0.2122,0.2135,0.1972,0.1971,0.1971,0.197,0,0.1745,0.1751,0.1756,0.176,0.1768,0.1768,0.1801,0.1831,0.1856,0.1859,0.1929,0.1937,0.1972,0.2006,0.2006,0.2107,0.21,0.2063,0.2026,0.2111,0.214,0.2153,0.198,0.1978,0.1976,0.1975,0,0,0.1799,0.1759,0.1763,0.1772,0.1786,0.1793,0.1869,0.1906,0.1949,0.1987,0.2045,0.2107,0.2113,0.2135,0.2148,0.2191,0.2295,0.2187,0.2186,0.2212,0.2383,0.2251,0.2251,0.2285,0.2288,0.229,0.2383,0,0.1794,0.177,0.1765,0.1797,0.1804,0.1846,0.1909,0.1963,0.2012,0.2077,0.2124,0.2184,0.2169,0.2212,0.2254,0.2263,0.233,0.2274,0.2304,0.2305,0.2169,0.2261,0.2021,0.2072,0.2395,0.2397,0.2398,0,0.1763,0.1755,0.1757,0.1813,0.1829,0.1867,0.1964,0.2013,0.2111,0.2166,0.2229,0.2263,0.2349,0.233,0.2396,0.2367,0.2411,0.2413,0.2415,0.2262,0.2194,0.2036,0.2082,0.2418,0.2416,0.2415,0.2414,0,0.1746,0.1764,0.176,0.177,0.1827,0.1886,0.194,0.2034,0.2098,0.2229,0.2277,0.2361,0.2407,0.2459,0.248,0.2468,0.2534,0.2504,0.2428,0.242,0.2202,0.2168,0.2591,0.2591,0.2591,0.2591,0.2591,0,0.1707,0.1736,0.1755,0.176,0.1827,0.1883,0.1978,0.205,0.2157,0.2236,0.2319,0.238,0.2446,0.2486,0.252,0.2491,0.2568,0.2459,0.2437,0.223,0.22,0.2475,0.246,0.2594,0.2594,0.2593,0.2592,0,0.1704,0.1678,0.1728,0.1793,0.1811,0.1882,0.2006,0.2066,0.2157,0.2268,0.2326,0.2412,0.2455,0.2487,0.2558,0.2505,0.2518,0.2509,0.2261,0.2207,0.2388,0.2377,0.2438,0.2434,0.2431,0.2429,0.2426,0,0.1697,0.1699,0.1762,0.1794,0.1835,0.1925,0.1975,0.2075,0.2137,0.2273,0.2315,0.2398,0.2409,0.2404,0.237,0.2374,0.2481,0.2156,0.2076,0.2401,0.2374,0.2369,0.2363,0.1851,0.1844,0.1839,0.1834,0,0.1737,0.1759,0.1767,0.1823,0.1876,0.1927,0.2009,0.2027,0.214,0.2208,0.2252,0.2261,0.2263,0.2094,0.2076,0.2065,0.2121,0.204,0.2455,0.1905,0.1848,0.1821,0.1835,0.1785,0.179,0.1793,0.1796,0.1798,0.1779,0.1791,0.1783,0.1837,0.1892,0.1884,0.1874,0.1925,0.1941,0.1938,0.2048,0.1933,0.1927,0.1709,0.1686,0.1676,0.1847,0.1742,0.176,0.1783,0.1676,0.1613,0.1489,0.1492,0.1495,0.1497,0.1499,0,0.1749,0.1757,0.181,0.1799,0.1813,0.1868,0.1856,0.1771,0.171,0.1693,0.1667,0.1417,0.126,0.13,0.1184,0.1193,0.1209,0.116,0.1145,0.1193,0.1236,0.1102,0.0763,0.0761,0.0759,0.0758,0,0,0.1707,0.1689,0.1683,0.167,0.1702,0.1596,0.1543,0.144,0.136,0.1193,0.1087,0.1069,0.1135,0.087,0.0881,0.0788,0.0985,0.0758,0.1337,0.1359,0.14,0.1551,0.1396,0,0,0,0,0]},{"header":{"parameterUnit":"m.s-1","parameterCategory":2,"la1":30.2991,"la2":30.254,"lo1":-89.0895,"lo2":-89.0444,"dy":0.0017,"dx":0.0017,"nx":28,"ny":28,"refTime":"2024-03-19T21:00:00:Z","depth":"2","parameterNumber":3,"parameterNumberName":"V-component_of_CURRENTS"},"data":[0,0,0,0,0,0,0,0,0,0,0,0,0,0,0,0,0,0,0,0,0,0,0,0,0,0,0,0,0,0,0,0,0,0,0,0,0,0,0,0,0,0,0,0,0,0,0,0,0,0,0,0,0,0,0,0,0,0,0.0433,0.0434,0,0.0457,0.0456,0.0456,0.0434,0.0434,0.0434,0.0434,0.0305,0.0302,0.0299,0,0,0,0,0,0,0,0,0,0,0,0,0,0.0383,0.0383,0.0433,0.0434,0.0435,0.0457,0.0456,0.0455,0.0434,0.0434,0.0434,0.0434,0.0306,0.0302,0.0298,0,0,0,0,0,0,0,0,0,0,0,0,0,0.0397,0.0383,0.0433,0.0434,0.0435,0.0457,0.0456,0.0455,0.0434,0.0434,0.0434,0.0434,0.0308,0.0303,0.0298,0.0268,0,0,0.0282,0.028,0,0,0,0,0,0,0,0,0.0396,0.0398,0.0432,0.0434,0.0435,0.045,0.0392,0.0388,0.0434,0.0425,0.0434,0.0434,0.0345,0.0337,0.0331,0.0262,0.0256,0.0282,0.0279,0.0276,0.0275,0,0,0,0,0,0,0,0.0395,0.0397,0.0433,0.0434,0.0435,0.0439,0.0439,0.0391,0.0375,0.0426,0.0426,0.0443,0.0344,0.0336,0.0328,0.0254,0.0282,0.0277,0.0274,0.0272,0.0169,0.017,0,0,0,0,0,0,0.041,0.0396,0.0432,0.0435,0.0425,0.044,0.044,0.0438,0.0379,0.0374,0.0443,0.0442,0.0345,0.0334,0.0323,0.0302,0.0277,0.0272,0.0269,0.0169,0.017,0.017,0,0,0,0,0,0,0.0408,0.0412,0.0432,0.0424,0.0428,0.0442,0.0439,0.0439,0.044,0.0396,0.0386,0.0448,0.0344,0.033,0.0297,0.0296,0.0269,0.0265,0.0169,0.0169,0.017,0.0249,0,0,0,0,0,0,0.0406,0.0411,0.0401,0.0424,0.0429,0.0456,0.044,0.044,0.0455,0.0454,0.0396,0.0384,0.0343,0.0306,0.0292,0.0289,0.0261,0.0168,0.0169,0.017,0.0246,0.0252,0.0257,0,0,0,0,0,0.0404,0.0405,0.04,0.0405,0.0419,0.0458,0.0459,0.0463,0.0456,0.0461,0.0427,0.0386,0.0299,0.0302,0.0286,0.0281,0.0168,0.0169,0.017,0.0243,0.0251,0.0257,0,0,0,0,0,0,0.0383,0.0405,0.0399,0.0406,0.0433,0.0458,0.0462,0.047,0.0449,0.0438,0.0391,0.0377,0.0347,0.0305,0.0309,0.0254,0.0226,0.0224,0.0287,0.0294,0.0299,0.035,0.0257,0,0,0,0,0,0.0374,0.0377,0.0406,0.0414,0.0424,0.0441,0.0453,0.0463,0.046,0.0452,0.0416,0.0371,0.0336,0.0311,0.027,0.0238,0.0232,0.0224,0.023,0.0235,0.0266,0.0271,0.0281,0.0172,0.0172,0.0172,0,0,0.0377,0.0385,0.039,0.041,0.0421,0.0446,0.0445,0.0473,0.0492,0.0437,0.0427,0.0388,0.0334,0.0305,0.0286,0.027,0.0259,0.0236,0.0241,0.027,0.0273,0.0284,0.0293,0.0173,0.0173,0.0173,0,0,0.0389,0.0381,0.0388,0.0408,0.0436,0.0453,0.0466,0.0489,0.049,0.0483,0.0453,0.0442,0.0359,0.0353,0.033,0.0345,0.0292,0.0299,0.0363,0.0367,0.0377,0.0385,0.0381,0.0389,0.0298,0.0298,0.0298,0,0.0375,0.0399,0.0401,0.0415,0.0441,0.046,0.0489,0.0496,0.0507,0.0527,0.0484,0.044,0.0396,0.0401,0.0403,0.0363,0.0341,0.0341,0.0377,0.0386,0.0393,0.0387,0.0395,0.0302,0.0301,0.0301,0.0301,0,0.0414,0.0418,0.043,0.0448,0.0471,0.0506,0.0529,0.0554,0.0551,0.0565,0.0567,0.0517,0.0499,0.0473,0.0436,0.0464,0.0423,0.0389,0.0368,0.041,0.0399,0.0406,0.0307,0.0306,0.0305,0.0304,0,0,0.0408,0.0444,0.0449,0.0466,0.0496,0.053,0.0566,0.0624,0.0679,0.0647,0.0681,0.0644,0.0626,0.0602,0.0554,0.0561,0.059,0.0493,0.0492,0.0505,0.058,0.0524,0.0525,0.0543,0.0545,0.0546,0.0549,0,0.0432,0.0487,0.0489,0.0539,0.0574,0.0598,0.0647,0.0697,0.0718,0.0747,0.0717,0.0706,0.0666,0.064,0.0649,0.0592,0.0611,0.0592,0.0526,0.0525,0.0482,0.0533,0.0527,0.0526,0.0555,0.0556,0.0556,0,0.0474,0.0506,0.057,0.0619,0.0635,0.0657,0.0763,0.0807,0.0861,0.0864,0.0865,0.0815,0.0807,0.0747,0.0731,0.0705,0.0667,0.0633,0.0631,0.0565,0.0482,0.0489,0.0536,0.0567,0.0566,0.0565,0.0565,0,0.0522,0.0559,0.0622,0.064,0.0702,0.0727,0.0762,0.0849,0.0892,0.0922,0.0939,0.0915,0.0863,0.0837,0.0752,0.0732,0.0718,0.068,0.0613,0.0607,0.0589,0.0578,0.0706,0.0706,0.0706,0.0706,0.0706,0,0.0565,0.0601,0.0645,0.0677,0.0753,0.0772,0.0857,0.0907,0.0945,0.0988,0.0987,0.0985,0.0877,0.0834,0.0782,0.0711,0.0744,0.0653,0.0617,0.0611,0.0603,0.0626,0.0616,0.0706,0.0706,0.0706,0.0706,0,0.0602,0.0638,0.0696,0.0755,0.0773,0.0825,0.0864,0.0947,0.099,0.1027,0.1014,0.0999,0.0954,0.088,0.0799,0.0735,0.0685,0.0657,0.0648,0.0611,0.0568,0.0562,0.0599,0.0597,0.0596,0.0595,0.0594,0,0.0628,0.0673,0.0751,0.0783,0.0788,0.0853,0.0926,0.0963,0.101,0.1041,0.1049,0.1,0.0995,0.0889,0.0754,0.0671,0.0666,0.0587,0.0572,0.0603,0.0563,0.056,0.0556,0.0574,0.0573,0.0572,0.0572,0,0.067,0.0702,0.077,0.0825,0.0874,0.0952,0.1,0.104,0.1084,0.111,0.1122,0.1112,0.0998,0.0879,0.0728,0.0665,0.0597,0.0564,0.0617,0.059,0.0576,0.0537,0.0536,0.0564,0.0564,0.0565,0.0565,0.0566,0.0709,0.0752,0.0825,0.0868,0.0936,0.1017,0.107,0.1113,0.1172,0.1175,0.1166,0.1134,0.1007,0.0802,0.0684,0.0524,0.0559,0.0499,0.0504,0.0509,0.0493,0.0477,0.0443,0.0443,0.0443,0.0443,0.0443,0,0.0753,0.0782,0.0841,0.091,0.0974,0.0996,0.1104,0.1143,0.1188,0.1179,0.1172,0.1028,0.0937,0.0781,0.0548,0.0444,0.0448,0.0386,0.0426,0.0435,0.0443,0.0425,0.0356,0.0356,0.0355,0.0354,0,0,0.0778,0.083,0.0845,0.0911,0.0957,0.1059,0.1119,0.1147,0.1143,0.1121,0.1051,0.1085,0.0924,0.074,0.061,0.0465,0.0465,0.043,0.0514,0.0587,0.0595,0.0526,0.0511,0,0,0,0,0]}],[{"header":{"parameterUnit":"m.s-1","parameterCategory":2,"la1":30.2991,"la2":30.254,"lo1":-89.0895,"lo2":-89.0444,"dy":0.0017,"dx":0.0017,"nx":28,"ny":28,"refTime":"2024-03-19T21:00:00:Z","depth":"4","parameterNumber":2,"parameterNumberName":"U-component_of_CURRENTS"},"data":[0,0,0,0,0,0,0,0,0,0,0,0,0,0,0,0,0,0,0,0,0,0,0,0,0,0,0,0,0,0,0,0,0,0,0,0,0,0,0,0,0,0,0,0,0,0,0,0,0,0,0,0,0,0,0,0,0,0,0.054,0.0539,0,0.0496,0.0495,0.0495,0.0495,0.0496,0.0497,0.0497,0.0508,0.0508,0.0508,0,0,0,0,0,0,0,0,0,0,0,0,0,0.0581,0.058,0.054,0.0539,0.0539,0.0496,0.0495,0.0494,0.0495,0.0496,0.0497,0.0497,0.0508,0.0508,0.0508,0,0,0,0,0,0,0,0,0,0,0,0,0,0.0552,0.058,0.054,0.0534,0.0533,0.0496,0.0495,0.0494,0.0495,0.0496,0.0497,0.0498,0.0509,0.0508,0.0508,0.0487,0,0,0.0507,0.0506,0,0,0,0,0,0,0,0,0.0554,0.0551,0.0535,0.0534,0.0533,0.0502,0.0514,0.0495,0.0495,0.0509,0.0497,0.0498,0.0511,0.051,0.0499,0.0488,0.0488,0.0507,0.0506,0.0506,0.0506,0,0,0,0,0,0,0,0.0556,0.0553,0.0522,0.0535,0.0533,0.0518,0.0516,0.0509,0.0507,0.0508,0.0508,0.0503,0.0511,0.0499,0.0499,0.0488,0.0507,0.0506,0.0506,0.0506,0.057,0.0572,0,0,0,0,0,0,0.0563,0.0555,0.0524,0.0521,0.0546,0.0517,0.0514,0.0511,0.0505,0.0505,0.0502,0.0503,0.05,0.05,0.05,0.0517,0.0506,0.0506,0.0506,0.0568,0.057,0.0572,0,0,0,0,0,0,0.0564,0.0561,0.0525,0.0537,0.0531,0.0516,0.0512,0.051,0.0514,0.05,0.0501,0.0511,0.05,0.0501,0.0519,0.0516,0.0506,0.0505,0.0566,0.0569,0.0571,0.0524,0,0,0,0,0,0,0.0565,0.0561,0.0569,0.0537,0.0531,0.0514,0.0511,0.0508,0.0508,0.051,0.0508,0.0509,0.0501,0.0519,0.0518,0.0515,0.0505,0.0563,0.0567,0.057,0.0523,0.0525,0.0527,0,0,0,0,0,0.0567,0.057,0.057,0.0567,0.054,0.0514,0.051,0.0501,0.0508,0.0509,0.0519,0.0509,0.0543,0.052,0.0518,0.0515,0.0561,0.0566,0.057,0.0523,0.0525,0.0527,0,0,0,0,0,0,0.0584,0.0569,0.0569,0.0566,0.0548,0.0515,0.0519,0.0509,0.0514,0.0529,0.0518,0.052,0.0532,0.0547,0.0523,0.0555,0.0557,0.0561,0.0522,0.0524,0.0525,0.0574,0.0505,0,0,0,0,0,0.0593,0.0595,0.0573,0.0569,0.0569,0.0548,0.054,0.0534,0.0528,0.0531,0.0521,0.0537,0.0546,0.0555,0.056,0.057,0.0608,0.0579,0.0581,0.0582,0.0627,0.0669,0.0678,0.0587,0.0587,0.0586,0,0,0.0587,0.0588,0.0583,0.0574,0.0566,0.0556,0.0547,0.0542,0.0533,0.0532,0.0528,0.0532,0.0551,0.0559,0.0569,0.0572,0.0625,0.0587,0.0587,0.0633,0.0674,0.0683,0.0691,0.059,0.0589,0.0589,0,0,0.0585,0.0594,0.0598,0.0589,0.0587,0.0574,0.0578,0.0553,0.055,0.055,0.0547,0.0571,0.0568,0.0583,0.0593,0.062,0.0625,0.0613,0.0658,0.0696,0.0703,0.071,0.0745,0.0756,0.0619,0.0619,0.0619,0,0.0585,0.0587,0.0591,0.0595,0.0588,0.0586,0.058,0.0572,0.0551,0.0562,0.0558,0.0593,0.0591,0.0624,0.0633,0.0621,0.0644,0.063,0.0695,0.0703,0.0711,0.0745,0.0757,0.0618,0.0618,0.0618,0.0618,0,0.0571,0.0586,0.059,0.0596,0.059,0.0587,0.0577,0.0574,0.0579,0.0582,0.0616,0.0624,0.0665,0.0648,0.0646,0.0698,0.0694,0.0676,0.0677,0.0716,0.075,0.0764,0.0615,0.0616,0.0616,0.0617,0,0,0.0546,0.0574,0.0579,0.0594,0.0594,0.0589,0.0585,0.0592,0.0619,0.0621,0.0664,0.068,0.0715,0.0736,0.0728,0.076,0.0808,0.0747,0.075,0.0762,0.0892,0.0797,0.0802,0.0784,0.0787,0.0789,0.0882,0,0.0539,0.0549,0.0563,0.0576,0.058,0.0587,0.0587,0.0599,0.0624,0.0663,0.0707,0.0751,0.0738,0.0764,0.0798,0.0815,0.0848,0.0786,0.0874,0.0878,0.0771,0.0817,0.0798,0.0893,0.0896,0.0898,0.09,0,0.0522,0.0537,0.0542,0.0584,0.0589,0.0603,0.0632,0.0638,0.0696,0.0719,0.0791,0.0825,0.0901,0.0872,0.0961,0.0918,0.0924,0.0927,0.0929,0.0881,0.0809,0.0857,0.0925,0.0923,0.0921,0.0919,0.0918,0,0.0497,0.0532,0.0541,0.0544,0.0576,0.0601,0.0631,0.0672,0.0697,0.0785,0.0827,0.0917,0.0982,0.1015,0.1033,0.1007,0.111,0.1071,0.0993,0.0986,0.1061,0.1053,0.1137,0.1137,0.1136,0.1136,0.1136,0,0.0478,0.0499,0.0546,0.0551,0.0582,0.0618,0.0681,0.07,0.0777,0.0819,0.0886,0.0928,0.1022,0.1076,0.1076,0.1086,0.1153,0.1035,0.1014,0.1036,0.1025,0.1068,0.1059,0.114,0.1139,0.1138,0.1137,0,0.0454,0.0475,0.05,0.0551,0.0573,0.0605,0.0702,0.074,0.0812,0.0871,0.0902,0.0987,0.1056,0.1112,0.1177,0.114,0.1147,0.1119,0.1157,0.1131,0.0992,0.098,0.1078,0.1076,0.1074,0.1072,0.1071,0,0.0437,0.0444,0.0492,0.0503,0.0541,0.0611,0.0642,0.0735,0.077,0.0873,0.0882,0.0994,0.1034,0.1075,0.1128,0.1155,0.1117,0.1122,0.1057,0.1021,0.0992,0.0982,0.0973,0.1068,0.1067,0.1067,0.1066,0,0.0411,0.0434,0.046,0.0472,0.0513,0.055,0.0618,0.0643,0.0732,0.0816,0.0843,0.0887,0.0967,0.1026,0.106,0.1057,0.1128,0.1101,0.1105,0.1044,0.1009,0.098,0.0973,0.1059,0.106,0.1061,0.1061,0,0.0399,0.0408,0.0431,0.0449,0.047,0.0463,0.0521,0.0569,0.0623,0.0732,0.0741,0.0841,0.0945,0.0974,0.0989,0.1006,0.0988,0.0939,0.0951,0.0959,0.0875,0.081,0.081,0,0,0,0,0,0.0381,0.039,0.0395,0.0398,0.0408,0.0419,0.0472,0.0531,0.0631,0.0618,0.0681,0.0731,0.0793,0.0851,0.0848,0.0941,0.099,0.0931,0.0939,0.1021,0.1029,0.0939,0,0,0,0,0,0,0.0377,0.0385,0.0387,0.0347,0.0332,0.0337,0.0366,0.043,0.0437,0.0541,0.0585,0.0668,0.075,0.0789,0.0828,0.0846,0.0829,0.1002,0.0999,0.1017,0.1024,0.103,0.094,0,0,0,0,0]},{"header":{"parameterUnit":"m.s-1","parameterCategory":2,"la1":30.2991,"la2":30.254,"lo1":-89.0895,"lo2":-89.0444,"dy":0.0017,"dx":0.0017,"nx":28,"ny":28,"refTime":"2024-03-19T21:00:00:Z","depth":"4","parameterNumber":3,"parameterNumberName":"V-component_of_CURRENTS"},"data":[0,0,0,0,0,0,0,0,0,0,0,0,0,0,0,0,0,0,0,0,0,0,0,0,0,0,0,0,0,0,0,0,0,0,0,0,0,0,0,0,0,0,0,0,0,0,0,0,0,0,0,0,0,0,0,0,0,0,0.0434,0.0434,0,0.0464,0.0465,0.0465,0.0475,0.0475,0.0475,0.0475,0.0445,0.0444,0.0443,0,0,0,0,0,0,0,0,0,0,0,0,0,0.0387,0.0387,0.0434,0.0434,0.0434,0.0464,0.0465,0.0465,0.0475,0.0475,0.0475,0.0474,0.0445,0.0444,0.0443,0,0,0,0,0,0,0,0,0,0,0,0,0,0.0411,0.0388,0.0433,0.0443,0.0444,0.0464,0.0465,0.0465,0.0475,0.0475,0.0475,0.0474,0.0445,0.0444,0.0443,0.044,0,0,0.044,0.0439,0,0,0,0,0,0,0,0,0.0409,0.0413,0.0441,0.0442,0.0444,0.0466,0.0437,0.0454,0.0475,0.0463,0.0475,0.0474,0.0446,0.0445,0.0452,0.0438,0.0437,0.044,0.0439,0.0439,0.0438,0,0,0,0,0,0,0,0.0408,0.0411,0.0445,0.0442,0.0443,0.0447,0.045,0.0441,0.0454,0.0464,0.0465,0.0469,0.0447,0.0453,0.0451,0.0437,0.044,0.0439,0.0438,0.0438,0.0437,0.0438,0,0,0,0,0,0,0.0405,0.041,0.0444,0.0446,0.0426,0.0448,0.0452,0.0459,0.0455,0.0455,0.0469,0.0469,0.0455,0.0452,0.045,0.0474,0.0439,0.0438,0.0437,0.0437,0.0438,0.0438,0,0,0,0,0,0,0.0404,0.0408,0.0443,0.0429,0.0434,0.0449,0.0457,0.0459,0.0476,0.046,0.0458,0.0485,0.0454,0.0451,0.0454,0.0472,0.0437,0.0436,0.0436,0.0437,0.0438,0.0504,0,0,0,0,0,0,0.0402,0.0407,0.0411,0.0429,0.0434,0.0462,0.0457,0.046,0.0479,0.0479,0.0472,0.0469,0.0454,0.0456,0.0453,0.047,0.0435,0.0435,0.0437,0.0438,0.0501,0.0507,0.0512,0,0,0,0,0,0.0401,0.0411,0.0411,0.0416,0.044,0.0462,0.0466,0.0475,0.048,0.049,0.0488,0.047,0.0461,0.0456,0.0452,0.0469,0.0435,0.0436,0.0438,0.0499,0.0506,0.0512,0,0,0,0,0,0,0.0394,0.0413,0.0414,0.043,0.0446,0.0464,0.0472,0.0484,0.0493,0.0493,0.048,0.0476,0.0485,0.0466,0.0461,0.0471,0.0444,0.0445,0.0492,0.0498,0.0504,0.0503,0.0435,0,0,0,0,0,0.0393,0.0407,0.0424,0.0438,0.0443,0.046,0.0471,0.0482,0.0492,0.0497,0.0496,0.0489,0.0487,0.0485,0.0477,0.0483,0.0454,0.049,0.0496,0.0501,0.0497,0.0459,0.0461,0.0443,0.0443,0.0443,0,0,0.0399,0.0408,0.0418,0.0437,0.0447,0.0468,0.0467,0.0488,0.0512,0.049,0.0517,0.0509,0.0493,0.0503,0.0504,0.0491,0.0496,0.0502,0.0507,0.05,0.0461,0.0462,0.0464,0.0444,0.0444,0.0443,0,0,0.0412,0.0419,0.0432,0.0446,0.0464,0.0478,0.0488,0.0513,0.0527,0.0553,0.0542,0.0546,0.0548,0.054,0.0536,0.0565,0.0527,0.0563,0.0592,0.0556,0.0557,0.0557,0.0547,0.0546,0.0566,0.0566,0.0566,0,0.041,0.0435,0.0441,0.0456,0.0473,0.0486,0.051,0.0528,0.0555,0.0564,0.0568,0.0576,0.0567,0.0572,0.0587,0.0579,0.0555,0.0571,0.0563,0.0563,0.0562,0.0551,0.0549,0.057,0.0569,0.0569,0.0568,0,0.044,0.0456,0.0465,0.049,0.0508,0.0532,0.0555,0.0577,0.0599,0.0613,0.0631,0.0626,0.0628,0.0631,0.0622,0.0617,0.0603,0.0575,0.0547,0.0568,0.0555,0.0552,0.0574,0.0573,0.0572,0.0571,0,0,0.0442,0.0478,0.0482,0.0501,0.053,0.0553,0.0585,0.0616,0.0638,0.0661,0.0685,0.0692,0.0686,0.068,0.0668,0.0644,0.0636,0.0613,0.061,0.0605,0.0571,0.0544,0.0538,0.0601,0.06,0.0599,0.0573,0,0.0461,0.05,0.0515,0.0561,0.0583,0.0603,0.063,0.0657,0.0682,0.0705,0.0701,0.0718,0.0706,0.0715,0.0689,0.0646,0.0625,0.0646,0.0549,0.0546,0.0521,0.0532,0.0597,0.057,0.057,0.0569,0.0568,0,0.0482,0.0508,0.0556,0.0596,0.0607,0.064,0.0687,0.0717,0.0737,0.075,0.076,0.0755,0.0748,0.0727,0.0665,0.0677,0.0631,0.0594,0.0591,0.0535,0.0512,0.0537,0.0562,0.0562,0.0563,0.0563,0.0564,0,0.049,0.0535,0.058,0.0597,0.0643,0.0672,0.0704,0.0733,0.0763,0.0786,0.0808,0.0782,0.0794,0.072,0.0664,0.0659,0.0581,0.0562,0.0497,0.0495,0.0498,0.0497,0.0503,0.0503,0.0503,0.0504,0.0504,0,0.0503,0.0538,0.0592,0.0617,0.0667,0.0696,0.0753,0.077,0.0806,0.084,0.0839,0.0854,0.079,0.0746,0.0669,0.058,0.0586,0.0501,0.0479,0.0531,0.0534,0.0497,0.0497,0.0503,0.0503,0.0503,0.0503,0,0.0504,0.0539,0.0589,0.0648,0.0673,0.0713,0.079,0.0831,0.0859,0.0906,0.0919,0.0915,0.0859,0.0784,0.0674,0.0604,0.0504,0.0467,0.0551,0.0534,0.0445,0.0448,0.0394,0.0393,0.0392,0.0391,0.039,0,0.0506,0.0534,0.061,0.0648,0.0683,0.0752,0.0802,0.0851,0.0893,0.0938,0.0955,0.0935,0.0915,0.0752,0.0662,0.0514,0.0484,0.0439,0.0421,0.0446,0.043,0.0436,0.044,0.0389,0.0388,0.0388,0.0388,0,0.0503,0.0536,0.0579,0.0658,0.0724,0.0793,0.0866,0.089,0.0947,0.0982,0.0971,0.091,0.0853,0.0738,0.0633,0.052,0.0467,0.0427,0.0428,0.0411,0.0438,0.0425,0.0431,0.0384,0.0384,0.0385,0.0385,0,0.0499,0.0525,0.059,0.0662,0.0742,0.0808,0.0848,0.0897,0.0933,0.097,0.0963,0.091,0.0891,0.0741,0.0635,0.0531,0.0498,0.0447,0.0447,0.045,0.0465,0.0508,0.0454,0,0,0,0,0,0.0493,0.053,0.0592,0.0666,0.0749,0.0798,0.0881,0.0917,0.0966,0.0953,0.0953,0.0891,0.0758,0.0713,0.0601,0.0607,0.0479,0.0471,0.0419,0.0362,0.0367,0.0371,0,0,0,0,0,0,0.0489,0.0545,0.0582,0.0665,0.0716,0.0805,0.0857,0.0891,0.0879,0.091,0.0841,0.0838,0.071,0.0812,0.0588,0.0564,0.0509,0.0424,0.0421,0.036,0.0364,0.0367,0.0374,0,0,0,0,0]}]]